User: anonymous   Login
Location: Elk Forest
(39.5314°N, 75.8738°W)
Time: 11:22:38
(UTC-04:00)
Language:

Resurs 01 Rocket - Orbit

View from above orbital plane
View from above orbital plane
View from above satellite
View from above satellite

Ground track
Ground track

The orbit data is extracted from the following two-line orbital elements,

1 23343U 94074B   16272.11106712  .00000041  00000-0  13510-4 0  9995
2 23343  98.1865 300.1030 0006793 182.2164 242.4144 14.76672807178151
Epoch (UTC): 28 September 2016 02:39:56
Eccentricity: 0.0006793
inclination: 98.1865°
perigee height: 635 km
apogee height: 644 km
right ascension of ascending node: 300.1030°
argument of perigee: 182.2164°
revolutions per day: 14.76672807
mean anomaly at epoch: 242.4144°
orbit number at epoch: 17815

The dashed part of the orbit path shows where the satellite is in the earth's shadow,  

DLR